Location: Luz Observatory
(34.5000°N, 117.2833°W)
Time: 22:09:10
(UTC-07:00)

Daily predictions for brighter satellites

Satellite Brightness Start Highest point End
(mag) Time Altitude Azimuth Time Altitude Azimuth Time Altitude Azimuth
Okean 2 Rocket 3.6 19:49:20 10° SSW 19:53:47 67° W 19:58:18 10° N
SJ-6B 2.9 19:49:53 10° SSE 19:53:56 76° ENE 19:58:04 10° N
Meteor 1-11 Rocket 4.0 19:48:46 10° SSE 19:54:20 48° E 19:59:49 10° NNE
Delta 2 Rocket 3.1 19:50:46 10° WSW 19:54:28 80° SSE 19:58:40 10° E
NOSS 2-3 (E) 3.8 19:50:03 10° SSW 19:54:38 90° ENE 19:59:47 10° NNE
HJ-1C 3.4 19:57:40 10° SSE 20:01:04 82° E 20:04:28 10° N
Cosmos 44 Rocket 4.0 19:57:15 10° NW 20:01:54 54° WSW 20:06:37 10° SSE
Cosmos 2360 Rocket 2.7 19:58:12 10° SSE 20:03:15 35° ESE 20:08:18 10° NE
SeaSat 1 3.3 20:00:15 10° NE 20:04:25 27° ESE 20:08:34 10° SSE
Cosmos 1420 Rocket 4.4 19:59:23 10° SSW 20:04:31 67° WNW 20:09:42 10° NNE
Cosmos 1850 Rocket 4.3 20:05:03 10° N 20:10:12 49° ENE 20:15:17 10° SE
COSMOS 2428 4.1 20:09:00 10° SE 20:12:36 17° E 20:16:13 10° ENE
Resurs 1-3 3.8 20:09:52 10° SSE 20:14:06 50° ENE 20:18:20 10° N
Cosmos 1655 Rocket 4.3 20:08:49 10° SSW 20:15:05 74° W 20:21:26 10° N
USA 186 2.1 20:17:21 10° SSE 20:20:37 49° ENE 20:23:54 10° N
Meteor 1-19 Rocket 4.3 20:16:17 10° N 20:22:09 80° E 20:27:54 10° S
Cosmos 614 Rocket 4.1 20:18:06 10° NNW 20:23:14 76° WSW 20:28:22 10° S
Cosmos 1536 2.8 20:20:31 10° S 20:24:32 67° E 20:28:35 10° NNE
Cosmos 1300 Rocket 3.4 20:20:38 10° S 20:24:53 69° E 20:29:11 10° NNE
Meteor 1-5 Rocket 4.2 20:20:28 10° SSE 20:25:36 51° E 20:30:43 10° NNE
Lacrosse 5 rocket 3.4 20:23:22 10° WNW 20:26:15 21° WSW 20:29:15 10° S
Cosmos 1025 Rocket 4.3 20:22:58 10° NNE 20:26:16 21° ENE 20:27:31 19° E
CZ-2D R/B 3.3 20:23:04 10° S 20:26:56 84° W 20:30:48 10° NNW
Cosmos 1140 Rocket 4.1 20:21:49 10° NNW 20:26:58 59° WSW 20:32:05 10° S
Tiangong 1 1.4 20:25:03 10° NW 20:27:45 45° NNE 20:28:59 25° E
BREEZE M DEB (TANK) 3.7 20:13:44 10° SW 20:28:05 63° SE 20:31:55 10° ENE
Okean 1 Rocket 3.3 20:24:00 10° SSE 20:28:09 47° E 20:32:21 10° NNE
Meteosat 1 Rocket2 4.0 20:24:25 10° WSW 20:28:40 42° S 20:32:37 19° ESE
Cosmos 1939 Rocket 3.6 20:27:31 19° SE 20:29:37 33° ENE 20:33:09 10° N
Cosmos 1607 4.2 20:27:35 10° NNW 20:33:58 58° ENE 20:38:34 19° SE
Spot 2 Rocket 3.4 20:30:11 10° SSE 20:35:17 82° ENE 20:40:23 10° N
Helios 1A 4.1 20:37:47 23° E 20:38:57 27° ENE 20:42:32 10° NNE
Meteor 2-4 Rocket 3.7 20:35:06 10° N 20:40:45 81° E 20:46:32 10° S
YAOGAN 6 3.3 20:44:35 31° E 20:45:00 32° ENE 20:48:11 10° N
OAO 1 Rocket 4.4 20:40:29 10° W 20:45:50 84° N 20:49:11 24° E
Cosmos 1818 3.9 20:40:50 10° S 20:45:51 40° ESE 20:50:54 10° NE
ERS-1 Rocket 4.2 20:46:58 21° E 20:47:51 22° ENE 20:51:41 10° NNE
ASTRO E2 3.6 20:45:21 10° SW 20:48:51 29° SSE 20:49:06 29° SSE
Abrixas 2.8 20:46:48 10° WSW 20:49:20 53° NW 20:50:21 29° NNE
Okean 1-7 Rocket 4.0 20:48:59 10° N 20:53:17 43° E 20:54:27 35° ESE
ATLAS 3B R/B 3.1 20:48:01 10° NNW 20:54:21 43° NE 20:57:14 28° ESE
Resurs 01 Rocket 2.6 20:50:59 10° S 20:55:15 47° W 20:59:34 10° NNW
Cosmos 2266 Rocket 4.2 20:55:56 10° SSW 21:01:56 68° W 21:07:57 10° N
USA 267 3.5 20:58:15 21° SSE 21:02:44 65° SW 21:09:15 10° NW
Envisat 3.3 21:00:07 12° S 21:04:45 64° W 21:09:48 10° NNW
Cosmos 2263 Rocket 2.7 21:06:27 10° NNW 21:12:00 56° WSW 21:15:50 20° S
Lacrosse 5 4.2 21:08:51 10° W 21:12:56 24° NW 21:17:01 10° NNE
Aureole 3 Rocket 4.3 21:10:19 10° N 21:17:26 43° ENE 21:18:23 40° E
Intelsat 5-1 Rocket 4.4 20:53:37 10° WSW 21:17:57 52° S 21:22:07 34° SE
Cosmos 1844 Rocket 3.6 21:13:02 10° N 21:18:05 32° ENE 21:18:29 31° ENE
Cosmos 1515 4.0 21:14:49 10° N 21:18:01 55° NE 21:18:01 55° NE
Nadezhda 2 Rocket 4.4 21:13:14 10° S 21:19:22 86° W 21:25:38 10° N
Helios 1B rocket 2.3 21:15:37 10° NNE 21:19:44 86° WNW 21:20:52 47° SSW
Cosmos 2278 Rocket 4.2 21:17:29 10° NNE 21:19:56 13° NE 21:20:01 13° NE
Spot 1 4.4 21:19:14 52° SE 21:20:24 71° ENE 21:25:25 10° N
Cosmos 2315 Rocket 3.9 21:15:17 10° N 21:21:35 88° E 21:24:52 31° S
Cosmos 1892 Rocket 4.4 21:19:56 10° N 21:23:06 36° NE 21:23:06 36° NE
Atlas Centaur 2 3.5 21:17:41 10° W 21:25:19 40° SSW 21:27:38 32° SSE
Cosmos 1302 Rocket 3.9 21:21:06 10° SSW 21:26:23 87° WNW 21:31:41 10° NNE
H-2A R/B 3.4 21:27:32 23° NE 21:27:32 23° NE 21:30:30 10° NNE
Cosmos 1500 3.5 21:29:26 65° NNW 21:29:26 65° NNW 21:32:50 10° N
Cosmos 2219 Rocket 2.6 21:31:38 44° ENE 21:31:38 44° ENE 21:35:55 10° NNE
Cosmos 1544 Rocket 4.4 21:34:25 40° NNE 21:34:25 40° NNE 21:37:25 10° NNE
Cosmos 1745 Rocket 4.2 21:35:31 47° ENE 21:35:31 47° ENE 21:40:59 10° NNE
Cosmos 1486 Rocket 4.1 21:31:27 10° N 21:36:24 58° ENE 21:36:24 58° ENE
Delta 2 Rocket 3.6 21:32:58 10° W 21:36:35 67° NW 21:36:35 67° NW
Terra 4.2 21:43:40 11° NE 21:43:40 11° NE 21:44:06 10° NNE
Okean 2 4.1 21:37:39 10° NNW 21:41:37 49° W 21:41:40 49° W
SeaSat 1 4.2 21:37:30 10° N 21:41:53 32° WNW 21:46:13 10° WSW
FALCON 9 R/B 3.9 21:37:35 10° SSW 21:48:21 29° E 22:00:07 10° ENE
Cosmos 1975 4.0 21:45:06 37° N 21:45:06 37° N 21:47:37 10° N
Cosmos 1455 Rocket 4.2 21:46:54 35° NNE 21:46:54 35° NNE 21:49:34 10° N
NOSS 3-4 (A) 3.3 21:39:20 10° SSW 21:45:34 73° ESE 21:51:56 10° NE
NOSS 3-4 (C) 3.3 21:39:26 10° SSW 21:45:40 72° ESE 21:52:02 10° NE
Cosmos 2360 Rocket 4.2 21:42:29 10° WSW 21:47:14 27° WNW 21:51:59 10° N
COSMOS 2428 3.4 21:50:45 10° SW 21:56:20 54° WNW 22:01:57 10° NNE
Cosmos 1844 4.1 21:57:56 10° NNW 22:02:38 52° NNE 22:02:38 52° NNE
MetOp-A 4.3 22:05:42 67° WNW 22:05:42 67° WNW 22:10:44 10° NNW
Cosmos 2333 Rocket 3.0 22:11:01 43° NNE 22:11:01 43° NNE 22:14:44 10° NNE
Cosmos 2237 Rocket 3.9 22:23:58 22° NNE 22:23:58 22° NNE 22:25:54 10° NNE
ERS-1 Rocket 4.3 22:26:58 34° W 22:26:58 34° W 22:30:58 10° NNW
Nadezhda 1 Rocket 4.2 22:21:59 10° N 22:27:23 66° NNW 22:27:23 66° NNW
NOSS 3-2 (A) 3.9 22:24:54 10° NNW 22:32:34 88° NW 22:32:34 88° NW
ARGOS 4.3 22:35:33 39° WNW 22:35:33 39° WNW 22:39:36 10° NNW
USA 238 DEB 4.4 22:29:13 10° NW 22:35:54 45° WSW 22:35:58 45° WSW
USA 238 4.4 22:29:19 10° NW 22:36:01 45° WSW 22:36:04 45° WSW
ATLAS 3B R/B 3.9 22:39:10 10° NW 22:44:30 29° WSW 22:44:30 29° WSW
Cosmos 1844 Rocket 4.5 22:56:58 10° NW 23:00:10 25° WNW 23:00:10 25° WNW
Cosmos 2278 Rocket 3.8 22:59:00 10° NNW 23:01:51 31° NNW 23:01:51 31° NNW
H-2A R/B 4.2 23:08:11 21° NW 23:08:11 21° NW 23:10:11 10° NW
NOSS 3-2 (C) 4.5 23:05:29 10° NW 23:11:39 56° WNW 23:11:39 56° WNW
Cosmos 2219 Rocket 4.4 23:13:13 18° WNW 23:14:40 20° WNW 23:18:44 10° NNW
CENTAUR R/B 3.7 23:24:55 10° NNW 23:30:54 53° N 23:30:54 53° N
